This is the latest recevied weather packets stored in our database for station/object IW2NIA-3. If no packets are shown the sender has not sent any weather packets the latest 10 day(s).
| Time | Temp. | Humidity | Pressure | Rain* | Wind** | Luminosity | Snow |
|---|---|---|---|---|---|---|---|
| 1787779109 | 23.33° C | 85% | 1016.9 hPa | 0 mm | - | - | - |
| 1787778220 | 23.33° C | 85% | 1016.9 hPa | 0 mm | - | - | - |
| 1787777328 | 23.89° C | 85% | 1016.7 hPa | 0 mm | - | - | - |
| 1787776425 | 23.89° C | 85% | 1016.7 hPa | 0 mm | - | - | - |
| 1787775514 | 24.44° C | 85% | 1016.8 hPa | 0 mm | - | - | - |
| 1787774613 | 24.44° C | 84% | 1016.7 hPa | 0 mm | - | - | - |
| 1787773725 | 24.44° C | 84% | 1016.6 hPa | 0 mm | - | - | - |
| 1787772822 | 24.44° C | 83% | 1016.6 hPa | 0 mm | - | - | - |
| 1787771923 | 25° C | 82% | 1016.4 hPa | 0 mm | - | - | - |
| 1787771016 | 25° C | 80% | 1016.1 hPa | 0 mm | - | - | - |
| 1787770112 | 25.56° C | 78% | 1015.8 hPa | 0 mm | - | - | - |
| 1787769226 | 25.56° C | 77% | 1015.9 hPa | 0 mm | - | - | - |
| 1787768320 | 26.11° C | 76% | 1015.9 hPa | 0 mm | - | - | - |
| 1787767416 | 26.67° C | 73% | 1015.9 hPa | 0 mm | - | - | - |
| 1787766509 | 26.67° C | 72% | 1016 hPa | 0 mm | - | - | - |
| 1787765606 | 27.22° C | 70% | 1016 hPa | 0 mm | - | - | - |
| 1787764711 | 27.22° C | 71% | 1015.9 hPa | 0 mm | - | - | - |
| 1787763820 | 27.22° C | 71% | 1015.7 hPa | 0 mm | - | - | - |
| 1787762913 | 27.78° C | 70% | 1015.3 hPa | 0 mm | - | - | - |
| 1787762014 | 27.78° C | 67% | 1015.4 hPa | 0 mm | - | - | - |
| 1787761111 | 28.33° C | 65% | 1015.5 hPa | 0 mm | - | - | - |
| 1787760224 | 28.89° C | 64% | 1015.4 hPa | 0 mm | - | - | - |
| 1787759320 | 28.33° C | 64% | 1015.4 hPa | 0 mm | - | - | - |
| 1787758415 | 27.78° C | 65% | 1015.5 hPa | 0 mm | - | - | - |
| 1787757512 | 27.78° C | 65% | 1015.4 hPa | 0 mm | - | - | - |
* Rain latest hour (hover to see other rain measurements)
** Current wind speed in m/s (hover to see current wind gust speed)